When you browse on this site, cookies collect data to enhance your experience and personalize the content and advertising you see.
Visit our Privacy Policy to learn more. By continuing to use the site, you agree to this use of cookies and data.

Hourly Weather Tykha

Today, 3 August, Monday

Time Temperature Precipitation Wind Pressure Humidity
00:00 +13°C° 0 mm 1 mps 706 mmHg 83%
01:00 +13°C° 0 mm 1 mps 705 mmHg 82%
02:00 +13°C° 0 mm 1 mps 706 mmHg 81%
03:00 +13°C° 0 mm 1 mps 705 mmHg 80%
04:00 +13°C° 0 mm 1 mps 705 mmHg 80%
05:00 +13°C° 0 mm 1 mps 705 mmHg 79%
06:00 +15°C° 0 mm 2 mps 705 mmHg 75%
07:00 +17°C° 0 mm 2 mps 705 mmHg 72%
08:00 +19°C° 0 mm 2 mps 706 mmHg 68%
09:00 +20°C° 0 mm 2 mps 706 mmHg 61%
10:00 +23°C° 0 mm 2 mps 706 mmHg 55%
11:00 +24°C° 0 mm 3 mps 706 mmHg 48%
12:00 +25°C° 0 mm 3 mps 705 mmHg 46%
13:00 +26°C° 0 mm 3 mps 705 mmHg 44%
14:00 +26°C° 0 mm 3 mps 705 mmHg 43%
15:00 +26°C° 0 mm 3 mps 705 mmHg 47%
16:00 +25°C° 0 mm 3 mps 704 mmHg 51%
17:00 +25°C° 0 mm 3 mps 704 mmHg 55%
18:00 +22°C° 0 mm 3 mps 704 mmHg 63%
19:00 +20°C° 0 mm 2 mps 703 mmHg 71%
20:00 +20°C° 0 mm 1 mps 703 mmHg 79%
21:00 +19°C° 0 mm 1 mps 703 mmHg 80%
22:00 +17°C° 0 mm 2 mps 703 mmHg 82%
23:00 +17°C° 0 mm 2 mps 702 mmHg 84%

Tomorrow, 4 August, Tuesday

Time Temperature Precipitation Wind Pressure Humidity
00:00 +16°C° 0 mm 2 mps 702 mmHg 82%
01:00 +16°C° 0 mm 2 mps 702 mmHg 79%
02:00 +16°C° 0 mm 2 mps 702 mmHg 77%
03:00 +17°C° 0 mm 2 mps 702 mmHg 74%
04:00 +17°C° 0 mm 2 mps 702 mmHg 72%
05:00 +17°C° 0 mm 2 mps 701 mmHg 70%
06:00 +18°C° 0 mm 2 mps 701 mmHg 71%
07:00 +19°C° 0 mm 2 mps 702 mmHg 72%
08:00 +20°C° 0 mm 2 mps 702 mmHg 73%
09:00 +22°C° 0 mm 3 mps 702 mmHg 65%
10:00 +25°C° 0 mm 3 mps 702 mmHg 57%
11:00 +27°C° 0 mm 4 mps 703 mmHg 49%
12:00 +28°C° 0 mm 4 mps 703 mmHg 46%
13:00 +29°C° 0 mm 4 mps 703 mmHg 44%
14:00 +29°C° 0 mm 4 mps 703 mmHg 42%
15:00 +29°C° 0.1 mm 3 mps 703 mmHg 47%
16:00 +28°C° 0.1 mm 3 mps 704 mmHg 51%
17:00 +27°C° 0.1 mm 2 mps 704 mmHg 56%
18:00 +25°C° 0.1 mm 2 mps 703 mmHg 64%
19:00 +23°C° 0.1 mm 1 mps 703 mmHg 72%
20:00 +21°C° 0.1 mm 1 mps 703 mmHg 81%
21:00 +20°C° 0.3 mm 1 mps 704 mmHg 85%
22:00 +19°C° 0.3 mm 1 mps 704 mmHg 90%
23:00 +18°C° 0.3 mm 1 mps 704 mmHg 94%

Day after tomorrow, 5 August, Wednesday

Time Temperature Precipitation Wind Pressure Humidity
00:00 +17°C° 0.6 mm 2 mps 705 mmHg 95%
01:00 +17°C° 0.6 mm 2 mps 705 mmHg 97%
02:00 +17°C° 0.6 mm 2 mps 705 mmHg 98%
03:00 +17°C° 0.3 mm 2 mps 705 mmHg 98%
04:00 +17°C° 0.3 mm 2 mps 706 mmHg 98%
05:00 +17°C° 0.3 mm 2 mps 706 mmHg 98%
06:00 +17°C° 0 mm 2 mps 706 mmHg 98%
07:00 +17°C° 0 mm 2 mps 706 mmHg 98%
08:00 +16°C° 0 mm 2 mps 706 mmHg 97%
09:00 +17°C° 0 mm 2 mps 707 mmHg 96%
10:00 +17°C° 0 mm 2 mps 707 mmHg 95%
11:00 +17°C° 0 mm 2 mps 707 mmHg 93%
12:00 +18°C° 0 mm 3 mps 707 mmHg 92%
13:00 +18°C° 0 mm 3 mps 707 mmHg 91%
14:00 +18°C° 0 mm 3 mps 708 mmHg 90%
15:00 +18°C° 0 mm 3 mps 708 mmHg 90%
16:00 +18°C° 0 mm 3 mps 708 mmHg 91%
17:00 +18°C° 0 mm 2 mps 708 mmHg 92%
18:00 +18°C° 0 mm 2 mps 708 mmHg 93%
19:00 +18°C° 0 mm 2 mps 708 mmHg 94%
20:00 +18°C° 0 mm 2 mps 708 mmHg 96%
21:00 +18°C° 0 mm 2 mps 709 mmHg 96%
22:00 +17°C° 0 mm 2 mps 709 mmHg 97%
23:00 +17°C° 0 mm 2 mps 709 mmHg 97%

6 August, Thursday

Time Temperature Precipitation Wind Pressure Humidity
00:00 +18°C° 0 mm 1 mps 709 mmHg 97%
01:00 +16°C° 0 mm 1 mps 709 mmHg 97%
02:00 +16°C° 0 mm 1 mps 709 mmHg 97%
03:00 +16°C° 0 mm 1 mps 709 mmHg 97%
04:00 +15°C° 0 mm 1 mps 709 mmHg 97%
05:00 +14°C° 0 mm 1 mps 709 mmHg 97%
06:00 +16°C° 0 mm 1 mps 710 mmHg 92%
07:00 +18°C° 0 mm 1 mps 710 mmHg 87%
08:00 +19°C° 0 mm 1 mps 711 mmHg 82%
09:00 +20°C° 0 mm 2 mps 711 mmHg 73%
10:00 +23°C° 0 mm 2 mps 712 mmHg 64%
11:00 +25°C° 0 mm 3 mps 712 mmHg 55%
12:00 +26°C° 0 mm 4 mps 712 mmHg 53%
13:00 +26°C° 0 mm 4 mps 712 mmHg 51%
14:00 +27°C° 0 mm 4 mps 712 mmHg 49%
15:00 +26°C° 0 mm 4 mps 712 mmHg 52%
16:00 +26°C° 0 mm 4 mps 712 mmHg 55%
17:00 +25°C° 0 mm 4 mps 712 mmHg 58%
18:00 +22°C° 0 mm 3 mps 711 mmHg 66%
19:00 +21°C° 0 mm 3 mps 711 mmHg 75%
20:00 +19°C° 0 mm 2 mps 711 mmHg 83%
21:00 +18°C° 0 mm 2 mps 711 mmHg 86%
22:00 +18°C° 0 mm 1 mps 712 mmHg 89%
23:00 +16°C° 0 mm 1 mps 712 mmHg 92%

7 August, Friday

Time Temperature Precipitation Wind Pressure Humidity
00:00 +16°C° 0 mm 1 mps 712 mmHg 92%
01:00 +16°C° 0 mm 1 mps 712 mmHg 93%
02:00 +15°C° 0 mm 1 mps 712 mmHg 93%
03:00 +15°C° 0 mm 1 mps 712 mmHg 93%
04:00 +15°C° 0 mm 1 mps 712 mmHg 94%
05:00 +13°C° 0 mm 0 mps 712 mmHg 94%
06:00 +16°C° 0 mm 1 mps 712 mmHg 88%
07:00 +19°C° 0 mm 1 mps 713 mmHg 83%
08:00 +21°C° 0 mm 1 mps 713 mmHg 77%
09:00 +21°C° 0 mm 2 mps 713 mmHg 71%
10:00 +24°C° 0 mm 3 mps 713 mmHg 65%
11:00 +25°C° 0 mm 4 mps 714 mmHg 59%
12:00 +26°C° 0 mm 4 mps 713 mmHg 58%
13:00 +26°C° 0 mm 4 mps 713 mmHg 57%
14:00 +27°C° 0 mm 4 mps 713 mmHg 56%
15:00 +26°C° 0.1 mm 4 mps 713 mmHg 60%
16:00 +26°C° 0.1 mm 4 mps 712 mmHg 64%
17:00 +25°C° 0.1 mm 4 mps 712 mmHg 67%
18:00 +24°C° 0.1 mm 3 mps 712 mmHg 75%
19:00 +21°C° 0.1 mm 3 mps 712 mmHg 83%
20:00 +19°C° 0.1 mm 3 mps 711 mmHg 91%
21:00 +19°C° 0 mm 2 mps 711 mmHg 93%
22:00 +18°C° 0 mm 2 mps 711 mmHg 95%
23:00 +17°C° 0 mm 2 mps 712 mmHg 97%

8 August, Saturday

Time Temperature Precipitation Wind Pressure Humidity
00:00 +18°C° 0 mm 1 mps 711 mmHg 97%
01:00 +16°C° 0 mm 1 mps 711 mmHg 97%
02:00 +16°C° 0 mm 1 mps 711 mmHg 98%
03:00 +16°C° 0 mm 1 mps 711 mmHg 98%
04:00 +16°C° 0 mm 1 mps 711 mmHg 98%
05:00 +16°C° 0 mm 1 mps 711 mmHg 98%
06:00 +16°C° 0 mm 1 mps 711 mmHg 95%
07:00 +18°C° 0 mm 1 mps 711 mmHg 92%
08:00 +18°C° 0 mm 2 mps 711 mmHg 88%
09:00 +19°C° 0 mm 2 mps 712 mmHg 79%
10:00 +20°C° 0 mm 3 mps 712 mmHg 71%
11:00 +22°C° 0 mm 4 mps 712 mmHg 62%
12:00 +22°C° 0 mm 4 mps 711 mmHg 60%
13:00 +23°C° 0 mm 4 mps 711 mmHg 59%
14:00 +23°C° 0 mm 4 mps 711 mmHg 57%
15:00 +23°C° 0 mm 4 mps 710 mmHg 60%
16:00 +22°C° 0 mm 4 mps 710 mmHg 62%
17:00 +22°C° 0 mm 4 mps 710 mmHg 65%
18:00 +20°C° 0 mm 3 mps 710 mmHg 73%
19:00 +19°C° 0 mm 3 mps 709 mmHg 81%
20:00 +17°C° 0 mm 2 mps 709 mmHg 89%
21:00 +17°C° 0 mm 2 mps 709 mmHg 91%
22:00 +16°C° 0 mm 2 mps 709 mmHg 93%
23:00 +15°C° 0 mm 1 mps 709 mmHg 95%
Show more